Погода в Чагде

Россия / Республика Саха (Якутия)     63°22′40″N   125°31′00″E
темп.,
°C
ветер,
м/с
пор.,
м/с
влажн.,
%
обл.,
%
осадки,
мм/ч
давл.,
гПа
погр.,
м
3 марта, ср
ср300:00−37зсз129938 0.0 102419
03:00−37сз229854 0.0 102319
06:00−38зсз229771 0.0 102319
09:00−36зсз239575 0.0 102253
12:00−32сз349095 0.0 1022297
15:00−30сз459297 0.0 1021381
18:00−31зсз4796100 0.1 1021359
21:00−31зсз4997100 0.2 1020396
4 марта, чт
чт400:00−31зсз51096100 0.1 1019491
03:00−31сз61195100 0.3 1019698
06:00−32сз51195100 0.1 1019554
09:00−34сз61194100 0.1 1019565
12:00−33сз6991100 0.1 1020660
15:00−32сз6989100 0.1 1022713
18:00−33сз4993100 0.0 1024365
21:00−36зсз4697100 0.1 1026105
5 марта, пт
пт500:00−37зсз459864 0.0 102686
03:00−38зсз449852 0.0 102777
06:00−38зсз479761 0.0 102898
09:00−37зсз599453 0.0 1029266
12:00−33зсз579141 0.0 1029376
15:00−30зсз579165 0.0 1029479
18:00−32зсз3496100 0.0 102975
21:00−35зсз449988 0.0 102957
6 марта, сб
сб600:00−36зсз45991 0.0 102870
03:00−37зсз44991 0.0 102856
06:00−37зсз44981 0.0 102760
09:00−35зсз36971 0.0 1027146
12:00−30сз359028 0.0 1026295
15:00−27сз348829 0.0 1025353
18:00−31сз229746 0.0 102419
21:00−34сз129923 0.0 102519
7 марта, вс
вс700:00−35сз111000 0.0 102419
03:00−36з00990 0.0 102419
06:00−37сз11980 0.0 102419
09:00−33в11900 0.0 102422
12:00−28в11790 0.0 1023216
15:00−24в11820 0.0 1022248
18:00−28всв23950 0.0 102119
21:00−30юв33950 0.0 102122